Regional Weather Roundup
Issued by NWS State College, PA

Home | Current Version | Previous Version | Graphics & Text | Print | Product List | Glossary On
Versions: 1 2 3 4 5 6 7 8 9 10 11 12 13 14 15 16 17 18 19 20 21 22 23 24 25 26 27 28 29 30 31 32 33 34 35 36 37 38 39 40 41 42 43 44 45 46 47 48 49 50
000
ASUS41 KCTP 272203
RWRCTP

REGIONAL WEATHER ROUNDUP
NATIONAL WEATHER SERVICE STATE COLLEGE PA
600 PM EDT WED AUG 27 2014

Note: "fair" indicates few or no clouds below 12,000 feet with no
significant weather and/or obstructions to visibility.

* = STATION THAT DOES NOT REPORT PRECIPITATION /E.G. RAIN...SNOW...ETC/
    THUNDER OR FOG.

PAZ002>004-007>009-013>016-020>023-029>032-272300-
WESTERN PENNSYLVANIA

CITY           SKY/WX    TMP DP  RH WIND       PRES   REMARKS
ERIE           SUNNY     74  58  57 W8        30.06S
MEADVILLE      MOSUNNY   73  61  65 N8        30.07F
FRANKLIN*      MOSUNNY   73  63  68 NW7       30.06S
NEW CASTLE     MOCLDY    76  67  73 NW8       30.05R
BEAVER COUNTY  MOSUNNY   81  68  65 N9G17     30.02F
BUTLER*        SUNNY     81  66  61 NW6       30.04S
PITTSBURGH INT MOSUNNY   82  70  66 NW13      30.01F
PITTSBURGH     MOSUNNY   78  71  79 NW3       30.00S HAZE
INDIANA*       PTSUNNY   79  70  73 N9G18     30.05R
LATROBE        LGT RAIN  82  73  74 W9        30.01F
WASHINGTON CO* SUNNY     79  68  69 W5        30.02S
$$

PAZ004>006-010>012-017>019-024>028-033>037-041-042-045-046-049>053-272300-
CENTRAL PENNSYLVANIA

CITY           SKY/WX    TMP DP  RH WIND       PRES   REMARKS
BRADFORD       MOSUNNY   73  62  68 NW13      30.06R
DUBOIS         SUNNY     79  65  62 NW9       30.02S
CLEARFIELD     SUNNY     82  65  56 NW10      30.00S
JOHNSTOWN      SUNNY     77  66  68 W8        30.05S
ALTOONA        MOSUNNY   84  67  56 W8        30.00S
STATE COLLEGE  MOSUNNY   84  68  58 W7        29.97S
WILLIAMSPORT   PTSUNNY   87  68  52 NW7       29.90S
SELINSGROVE    PTSUNNY   87  72  60 VRB5      29.91F
FT INDIANTOWN  MOSUNNY   85  72  63 SW8       29.93S
CAPITAL CITY   MOSUNNY   86  69  56 W6        29.92S
HARRISBURG     MOSUNNY   87  72  60 SW7       29.91F
YORK           SUNNY     85  70  60 SW5       29.94S
$$

PAZ038>040-043-044-047-048-054-055-060>062-067>071-272300-
EASTERN PENNSYLVANIA

CITY           SKY/WX    TMP DP  RH WIND       PRES   REMARKS
SCRANTON       PTSUNNY   83  67  58 NW6       29.92F
MOUNT POCONO   CLOUDY    82  66  58 NW7       29.98F
ALLENTOWN      SUNNY     87  68  52 W10       29.91F
QUAKERTOWN*    CLEAR     86  68  54 MISG      29.93F
READING        SUNNY     88  68  51 W8        29.91S
LANCASTER      SUNNY     86  65  49 W9        29.92F
COATESVILLE    CLEAR     84  68  58 SW3       29.95F
POTTSTOWN      SUNNY     86  66  51 SW8       29.93F
BLUE BELL      MOSUNNY   88  68  51 SW6       29.91S
DOYLESTOWN     SUNNY     87  66  49 VRB6      29.90F
WILLOW GROVE   NOT AVBL
NORTH PHILA    SUNNY     89  64  43 W9        29.91F
PHILADELPHIA   MOSUNNY   88  65  46 SW10      29.91S
$$


USA.gov is the U.S. government's official web portal to all federal, state and local government web resources and services.